Weather History for Richmond, KY

Change the Weather History Date:

Sunday, December 9, 2012

  Actual Average (KLOZ) Record (KLOZ)
Temperature  
Mean Temperature 56 °F 40 °F  
Max Temperature 60 °F 49 °F 68 °F (2007)
Min Temperature 51 °F 31 °F 10 °F (1976)
Degree Days  
Heating Degree Days 10 25  
Month to date heating degree days 216  
Since 1 July heating degree days 1046  
Cooling Degree Days 0 0  
Month to date cooling degree days 0  
Year to date cooling degree days 1190  
Growing Degree Days 6 (Base 50)    
Moisture  
Dew Point 54 °F    
Average Humidity 90    
Maximum Humidity 100    
Minimum Humidity 77    
Precipitation  
Precipitation 0.00 in 0.16 in 1.81 in (1961)
Month to date precipitation 1.31  
Year to date precipitation 44.21  
Sea Level Pressure  
Sea Level Pressure 29.91 in    
Wind  
Wind Speed 5 mph (South)    
Max Wind Speed 16 mph    
Max Gust Speed 22 mph    
Visibility 8 miles    
Events      
T = Trace of Precipitation, MM = Missing Value Source: NWS Daily Summary

Daily Weather History Graph

Daily Weather History Graph

Search for Another Location

Airport:

Trip Planner

Search our weather history database for the weather conditions in past years. The results will help you decide how hot, cold, wet, or windy it might be!

Date:

Astronomy

Dec. 09, 2012 Rise Set
Actual Time 7:41 AM EST 5:18 PM EST
Civil Twilight 7:11 AM EST 5:47 PM EST
Nautical Twilight 6:39 AM EST 6:20 PM EST
Astronomical Twilight 6:07 AM EST 6:52 PM EST
Moon 3:16 AM EST (12/9) 2:22 PM EST (12/9)
Length of Visible Light 10h 36m
Length of Day
9h 37m
Waning Crescent, 19% of the Moon is Illuminated
Dec 9
Waning Crescent
Dec 13
New
Dec 20
First Quarter
Dec 28
Full
Jan 4
Last Quarter

Hourly Weather History & Observations

Time (EST) Temp. Dew Point Humidity Pressure Visibility Wind Dir Wind Speed Gust Speed Precip Events Conditions
12:15 AM 51.8 °F 50.0 °F 94% 29.99 in 5.0 mi East 5.8 mph - N/A   Overcast
12:35 AM 51.8 °F 50.0 °F 94% 29.98 in 7.0 mi East 4.6 mph - N/A   Overcast
12:55 AM 51.8 °F 50.0 °F 94% 29.99 in 7.0 mi Calm Calm - N/A   Overcast
1:15 AM 51.8 °F 50.0 °F 94% 29.99 in 7.0 mi Calm Calm - N/A   Overcast
1:35 AM 51.8 °F 50.0 °F 94% 29.99 in 7.0 mi Calm Calm - N/A   Overcast
1:55 AM 51.8 °F 50.0 °F 94% 29.98 in 5.0 mi Calm Calm - N/A   Overcast
2:15 AM 51.8 °F 50.0 °F 94% 29.98 in 5.0 mi Calm Calm - N/A   Overcast
2:35 AM 51.8 °F 50.0 °F 94% 29.99 in 5.0 mi Calm Calm - N/A   Overcast
2:55 AM 51.8 °F 50.0 °F 94% 29.98 in 5.0 mi East 4.6 mph - N/A   Overcast
3:15 AM 51.8 °F 50.0 °F 94% 29.98 in 5.0 mi East 3.5 mph - N/A   Overcast
3:35 AM 51.8 °F 50.0 °F 94% 29.98 in 5.0 mi ESE 3.5 mph - N/A   Overcast
3:55 AM 51.8 °F 50.0 °F 94% 29.98 in 5.0 mi Calm Calm - N/A   Overcast
4:15 AM 51.8 °F 50.0 °F 94% 29.97 in 3.0 mi SE 4.6 mph - N/A   Overcast
4:35 AM 51.8 °F 50.0 °F 94% 29.97 in 3.0 mi Calm Calm - N/A   Overcast
4:55 AM 51.8 °F 50.0 °F 94% 29.97 in 4.0 mi Calm Calm - N/A   Overcast
5:15 AM 51.8 °F 50.0 °F 94% 29.97 in 5.0 mi Calm Calm - N/A   Overcast
5:35 AM 51.8 °F 50.0 °F 94% 29.97 in 3.0 mi Calm Calm - N/A   Overcast
5:55 AM 51.8 °F 50.0 °F 94% 29.98 in 3.0 mi Calm Calm - N/A   Overcast
6:15 AM 51.8 °F 50.0 °F 94% 29.98 in 1.5 mi Calm Calm - N/A   Overcast
6:35 AM 51.8 °F 50.0 °F 94% 29.97 in 4.0 mi Calm Calm - N/A   Overcast
6:55 AM 51.8 °F 50.0 °F 94% 29.98 in 4.0 mi ESE 4.6 mph - N/A   Overcast
7:15 AM 51.8 °F 51.8 °F 100% 29.98 in 4.0 mi SE 4.6 mph - N/A   Overcast
7:35 AM 51.8 °F 51.8 °F 100% 29.97 in 5.0 mi ESE 3.5 mph - N/A   Overcast
7:55 AM 53.6 °F 51.8 °F 94% 29.97 in 5.0 mi SE 3.5 mph - N/A   Overcast
8:15 AM 53.6 °F 53.6 °F 100% 29.97 in 5.0 mi SSE 5.8 mph - N/A   Mostly Cloudy
8:35 AM 55.4 °F 55.4 °F 100% 29.96 in 7.0 mi SSE 5.8 mph - N/A   Mostly Cloudy
8:55 AM 57.2 °F 55.4 °F 94% 29.96 in 10.0 mi SSE 4.6 mph - N/A   Overcast
9:15 AM 57.2 °F 55.4 °F 94% 29.95 in 10.0 mi South 6.9 mph - N/A   Overcast
9:35 AM 59.0 °F 55.4 °F 88% 29.96 in 5.0 mi South 8.1 mph - N/A   Overcast
9:55 AM 59.0 °F 55.4 °F 88% 29.96 in 10.0 mi South 8.1 mph - N/A   Overcast
10:35 AM 59.0 °F 55.4 °F 88% 29.98 in 7.0 mi SSW 8.1 mph 16.1 mph N/A   Overcast
10:55 AM 59.0 °F 55.4 °F 88% 29.97 in 7.0 mi South 6.9 mph - N/A   Overcast
11:35 AM 59.0 °F 55.4 °F 88% 29.95 in 7.0 mi South 13.8 mph 20.7 mph N/A   Overcast
11:55 AM 59.0 °F 55.4 °F 88% 29.95 in 10.0 mi South 12.7 mph - N/A   Overcast
12:15 PM 59.0 °F 55.4 °F 88% 29.93 in 10.0 mi South 13.8 mph 18.4 mph N/A   Overcast
12:35 PM 59.0 °F 55.4 °F 88% 29.92 in 10.0 mi South 13.8 mph 19.6 mph N/A   Overcast
12:55 PM 59.0 °F 55.4 °F 88% 29.90 in 10.0 mi South 10.4 mph 16.1 mph N/A   Overcast
1:15 PM 59.0 °F 55.4 °F 88% 29.91 in 10.0 mi South 11.5 mph - N/A   Overcast
1:35 PM 59.0 °F 55.4 °F 88% 29.90 in 10.0 mi South 9.2 mph - N/A   Overcast
1:55 PM 59.0 °F 55.4 °F 88% 29.90 in 10.0 mi South 6.9 mph - N/A   Overcast
2:15 PM 59.0 °F 55.4 °F 88% 29.89 in 10.0 mi South 10.4 mph - N/A   Overcast
2:35 PM 59.0 °F 55.4 °F 88% 29.88 in 10.0 mi South 10.4 mph 16.1 mph N/A   Overcast
2:55 PM 59.0 °F 55.4 °F 88% 29.88 in 10.0 mi South 9.2 mph - N/A   Overcast
3:15 PM 59.0 °F 55.4 °F 88% 29.89 in 10.0 mi South 8.1 mph - N/A   Overcast
3:35 PM 59.0 °F 55.4 °F 88% 29.89 in 10.0 mi South 12.7 mph - N/A   Overcast
3:55 PM 59.0 °F 55.4 °F 88% 29.89 in 10.0 mi South 6.9 mph 16.1 mph N/A   Overcast
4:15 PM 59.0 °F 55.4 °F 88% 29.88 in 10.0 mi South 8.1 mph - N/A   Overcast
4:35 PM 60.8 °F 55.4 °F 82% 29.88 in 10.0 mi South 9.2 mph - N/A   Overcast
4:55 PM 60.8 °F 57.2 °F 88% 29.89 in 10.0 mi SW 4.6 mph - N/A   Overcast
5:15 PM 59.0 °F 57.2 °F 94% 29.89 in 10.0 mi South 6.9 mph - N/A   Overcast
5:35 PM 59.0 °F 57.2 °F 94% 29.88 in 10.0 mi South 6.9 mph - N/A   Overcast
5:55 PM 60.8 °F 57.2 °F 88% 29.87 in 10.0 mi South 8.1 mph - N/A   Overcast
6:15 PM 60.8 °F 57.2 °F 88% 29.86 in 10.0 mi South 8.1 mph - N/A   Overcast
6:35 PM 60.8 °F 57.2 °F 88% 29.86 in 10.0 mi South 10.4 mph - N/A   Overcast
6:55 PM 60.8 °F 57.2 °F 88% 29.86 in 10.0 mi South 12.7 mph - N/A   Overcast
7:15 PM 60.8 °F 57.2 °F 88% 29.86 in 7.0 mi South 11.5 mph 16.1 mph N/A   Overcast
7:35 PM 59.0 °F 57.2 °F 94% 29.85 in 7.0 mi SSE 4.6 mph - N/A   Overcast
7:55 PM 60.8 °F 57.2 °F 88% 29.84 in 10.0 mi South 11.5 mph 16.1 mph N/A   Overcast
8:15 PM 60.8 °F 55.4 °F 82% 29.83 in 10.0 mi South 11.5 mph 18.4 mph N/A   Mostly Cloudy
8:35 PM 60.8 °F 55.4 °F 82% 29.82 in 10.0 mi South 10.4 mph - N/A   Scattered Clouds
8:55 PM 60.8 °F 55.4 °F 82% 29.81 in 10.0 mi South 9.2 mph - N/A   Clear
9:15 PM 60.8 °F 55.4 °F 82% 29.81 in 10.0 mi South 9.2 mph 17.3 mph N/A   Clear
9:35 PM 60.8 °F 55.4 °F 82% 29.80 in 10.0 mi South 10.4 mph 17.3 mph N/A   Clear
9:55 PM 60.8 °F 55.4 °F 82% 29.80 in 10.0 mi South 11.5 mph 19.6 mph N/A   Mostly Cloudy
10:15 PM 60.8 °F 55.4 °F 82% 29.80 in 10.0 mi South 10.4 mph - N/A   Scattered Clouds
10:35 PM 60.8 °F 55.4 °F 82% 29.79 in 10.0 mi South 10.4 mph 17.3 mph N/A   Mostly Cloudy
10:55 PM 60.8 °F 55.4 °F 82% 29.78 in 10.0 mi South 11.5 mph 19.6 mph N/A   Mostly Cloudy
11:15 PM 60.8 °F 55.4 °F 82% 29.78 in 10.0 mi South 10.4 mph 17.3 mph N/A   Mostly Cloudy
11:35 PM 60.8 °F 55.4 °F 82% 29.77 in 10.0 mi South 16.1 mph - N/A   Mostly Cloudy
11:55 PM 60.8 °F 53.6 °F 77% 29.77 in 10.0 mi SSW 15.0 mph 21.9 mph N/A   Mostly Cloudy